DateTimeUTC,F1_A11,F1_S11,BsB_S11,BsG_S11,BsR_S11,BbsB_S11,BbsG_S11,BbsR_S11,BaB_A11,BaG_A11,BaR_A11,Tu_S11,T_S11,Uu_S11,U_S11,P_S11,T1_A11
2021-07-09T02:00:00Z,00000200,20000000,,,,,,,-000.01,-000.05,-000.14,17.8,24.7,01.7,01.1,0665.9,31.0
2021-07-09T02:01:00Z,00000200,20000000,,,,,,,-000.16,-000.27,-000.29,17.7,24.7,01.7,01.1,0665.9,30.9
2021-07-09T02:02:00Z,00000200,20000000,,,,,,,0000.02,-000.11,0000.02,17.7,24.7,01.6,01.1,0665.9,30.9
2021-07-09T02:03:00Z,00000200,60000000,,,,,,,-000.22,-000.16,-000.01,17.7,24.7,01.5,01.0,0665.9,30.9
2021-07-09T02:04:00Z,00000200,41000000,0000.37,0000.35,-000.23,0000.20,-000.08,0000.12,0000.51,0000.39,0000.05,17.7,24.4,01.6,01.0,0666.8,30.9
2021-07-09T02:05:00Z,00000200,01000000,-001.14,0000.34,-000.20,0000.57,0000.30,0000.22,0000.18,0000.26,0000.20,17.7,24.3,01.7,01.1,0666.9,30.9
2021-07-09T02:06:00Z,00000200,01000000,-000.21,0000.30,0000.21,-000.31,0000.03,0000.08,-000.04,-000.16,0000.08,17.8,24.3,01.6,01.1,0666.9,30.9
2021-07-09T02:07:00Z,00000200,01000000,0000.83,0000.17,-000.39,-000.64,0000.22,-000.09,0000.08,0000.01,0000.17,17.8,24.3,01.6,01.1,0666.9,30.9
2021-07-09T02:08:00Z,00000200,01000000,0000.13,0000.26,0000.05,0000.14,-000.11,0000.19,0000.52,0000.73,0000.07,17.9,24.4,01.6,01.1,0667.0,31.0
2021-07-09T02:09:00Z,00000200,01000000,-000.44,0000.08,0000.18,0000.26,-000.06,0000.43,-000.46,-000.23,-000.20,18.0,24.4,01.7,01.1,0667.0,31.0
2021-07-09T02:10:00Z,00000200,01000000,0000.02,0000.03,-000.07,-000.67,-000.02,-000.13,0000.00,-000.02,0000.06,18.1,24.5,01.6,01.1,0667.0,31.0
2021-07-09T02:11:00Z,00000200,01000000,-000.15,0000.17,-000.11,-000.05,-000.47,0000.25,0000.14,-000.29,0000.08,18.1,24.5,01.6,01.1,0666.9,31.0
2021-07-09T02:12:00Z,00000200,01000000,0000.01,0000.52,-000.01,-000.02,-000.04,-000.00,-000.14,0000.21,0000.09,18.1,24.4,01.6,01.1,0667.0,31.0
2021-07-09T02:13:00Z,00000200,01000000,-000.30,0000.19,-000.25,0000.82,0000.10,-000.03,0000.31,-000.10,-000.20,18.0,24.4,01.6,01.1,0666.9,31.0
2021-07-09T02:14:00Z,00000200,01000000,-000.52,0000.23,-000.09,0000.35,-000.00,-000.04,-000.17,0000.10,-000.04,17.9,24.4,01.6,01.1,0667.0,31.0
2021-07-09T02:15:00Z,00000200,01000000,0000.26,0000.03,-000.21,0000.02,0000.08,-000.19,-000.13,0000.26,0000.36,17.9,24.4,01.7,01.1,0667.0,30.9
2021-07-09T02:16:00Z,00000200,01000000,-000.43,0000.44,0000.35,0000.35,-000.05,0000.14,0000.16,-000.26,-000.16,17.9,24.3,01.6,01.1,0667.0,30.9
2021-07-09T02:17:00Z,00000200,01000000,0000.22,0000.60,-000.23,-000.18,-000.03,-000.08,0000.16,0000.16,-000.27,17.8,24.3,01.7,01.1,0667.0,31.0
2021-07-09T02:18:00Z,00000200,01000000,0000.13,0000.23,0000.03,0000.40,0000.27,0000.03,-000.12,0000.05,0000.32,17.8,24.3,01.7,01.1,0666.9,30.9
2021-07-09T02:19:00Z,00000200,01000000,0000.64,-000.03,-000.14,0000.25,0000.11,-000.22,0000.26,0000.18,0000.20,17.7,24.3,01.8,01.2,0666.9,30.9
2021-07-09T02:20:00Z,00000200,01000000,0000.26,-000.05,-000.06,0000.40,0000.17,0000.31,0000.01,-000.08,-000.34,17.7,24.3,01.7,01.2,0666.9,30.9
2021-07-09T02:21:00Z,00000200,01000000,-000.11,0000.15,-000.11,-000.01,0000.06,0000.06,-000.05,0000.20,0000.49,17.8,24.3,01.8,01.2,0667.0,31.0
2021-07-09T02:22:00Z,00000200,01000000,0000.29,-000.02,-000.04,0000.14,-000.04,0000.13,0000.27,0000.34,-000.10,17.8,24.3,01.8,01.2,0667.0,31.0
2021-07-09T02:23:00Z,00000200,01000000,0000.13,0000.13,0000.12,0000.02,0000.03,0000.23,0000.27,-000.04,0000.24,17.9,24.4,01.8,01.2,0667.0,31.0
2021-07-09T02:24:00Z,00000200,01000000,0000.18,-000.14,0000.05,0000.84,-000.18,0000.06,0000.13,0000.04,0000.10,18.0,24.4,01.9,01.3,0667.0,31.0
2021-07-09T02:25:00Z,00000200,00000000,-000.24,0000.08,-000.08,0000.11,0000.01,0000.04,-000.57,-000.23,-000.41,18.1,24.4,01.9,01.2,0667.0,31.0
2021-07-09T02:26:00Z,00000200,01000000,-000.21,0000.36,-000.12,0000.26,-000.18,0000.23,0000.31,-000.11,0000.30,18.1,24.5,01.8,01.2,0667.0,31.0
2021-07-09T02:27:00Z,00000200,01000000,-000.21,-000.06,0000.30,-000.07,-000.04,0000.03,-000.24,0000.15,0000.03,18.1,24.4,01.8,01.2,0667.0,31.0
2021-07-09T02:28:00Z,00000200,01000000,0000.76,0000.12,0000.05,0000.03,0000.08,-000.20,0000.04,-000.26,-000.06,18.0,24.4,01.8,01.2,0667.0,31.0
2021-07-09T02:29:00Z,00000200,01000000,-000.02,0000.35,-000.09,0000.35,-000.03,-000.01,0000.13,-000.07,0000.18,18.0,24.4,01.7,01.2,0667.1,31.0
2021-07-09T02:30:00Z,00000200,01000000,0000.07,0000.02,0000.06,-000.25,0000.00,0000.35,-000.20,0000.05,-000.41,17.9,24.4,01.7,01.2,0667.1,31.0
2021-07-09T02:31:00Z,00000200,01000000,-000.14,0000.27,-000.24,0000.25,0000.05,-000.05,0000.04,0000.28,-000.15,17.9,24.4,01.7,01.2,0667.1,31.0
2021-07-09T02:32:00Z,00000200,01000000,0000.24,0000.24,-000.06,0000.25,0000.00,0000.18,-000.02,-000.17,0000.20,17.8,24.3,01.7,01.1,0667.1,30.9
2021-07-09T02:33:00Z,00000200,01000000,0000.29,-000.03,0000.12,0000.14,-000.34,0000.14,0000.03,0000.01,-000.17,17.8,24.3,01.7,01.1,0667.1,30.9
2021-07-09T02:34:00Z,00000200,01000000,-000.31,0000.02,-000.15,0000.27,0000.07,-000.22,0000.20,-000.02,0000.28,17.8,24.3,01.7,01.1,0667.1,30.9
2021-07-09T02:35:00Z,00000200,01000000,0000.06,0000.53,0000.12,0000.29,0000.13,-000.18,-000.05,0000.22,0000.07,17.8,24.3,01.8,01.2,0667.2,31.0
2021-07-09T02:36:00Z,00000200,01000000,0000.39,0000.24,0000.28,0000.38,0000.06,0000.18,0000.35,-000.05,0000.06,17.8,24.3,01.7,01.1,0667.2,31.0
2021-07-09T02:37:00Z,00000200,01000000,0000.61,-000.09,0000.02,0000.02,0000.12,-000.20,-000.36,0000.08,0000.02,17.9,24.3,01.7,01.1,0667.2,31.0
2021-07-09T02:38:00Z,00000200,01000000,0000.49,0000.10,-000.09,0000.18,-000.12,0000.02,0000.07,-000.04,0000.05,18.0,24.4,01.7,01.1,0667.2,31.0
2021-07-09T02:39:00Z,00000200,01000000,0000.33,-000.04,-000.17,-000.36,0000.00,-000.34,0000.36,0000.45,0000.17,18.1,24.4,01.6,01.1,0667.2,31.0
2021-07-09T02:40:00Z,00000200,01000000,0000.26,0000.13,0000.18,0000.19,0000.08,0000.22,-000.22,-000.40,-000.02,18.2,24.5,01.5,01.0,0667.2,31.0
2021-07-09T02:41:00Z,00000200,01000000,-000.32,0000.22,0000.23,-000.03,0000.02,0000.01,0000.02,-000.01,-000.46,18.2,24.5,01.5,01.0,0667.2,31.0
2021-07-09T02:42:00Z,00000200,01000000,0000.32,0000.26,-000.05,0000.03,0000.28,-000.04,-000.03,-000.10,0000.28,18.1,24.5,01.5,01.0,0667.2,31.0
2021-07-09T02:43:00Z,00000200,01000000,0000.06,0000.02,0000.20,-000.13,0000.19,-000.15,-000.19,-000.07,-000.12,18.1,24.5,01.6,01.0,0667.2,31.0
2021-07-09T02:44:00Z,00000200,01000000,0000.10,0000.28,-000.08,0000.01,-000.01,0000.11,0000.15,-000.04,0000.21,18.0,24.4,01.5,01.0,0667.2,31.0
2021-07-09T02:45:00Z,00000200,01000000,0000.27,0000.08,0000.12,-000.39,-000.12,0000.35,-000.18,0000.25,-000.49,18.0,24.4,01.5,01.0,0667.2,31.0
2021-07-09T02:46:00Z,00000200,01000000,-000.15,0000.39,0000.11,-000.16,0000.09,0000.12,0000.25,-000.20,0000.34,17.9,24.4,01.5,01.0,0667.2,30.9
2021-07-09T02:47:00Z,00000200,01000000,-000.42,0000.14,-000.28,0000.27,0000.07,0000.17,0000.27,0000.16,0000.14,17.9,24.4,01.5,01.0,0667.2,30.9
2021-07-09T02:48:00Z,00000200,01000000,0000.02,0000.03,0000.16,0000.15,-000.01,0000.10,-000.16,0000.09,-000.11,17.8,24.3,01.5,01.0,0667.2,30.9
2021-07-09T02:49:00Z,00000200,01000000,0000.83,0000.05,0000.04,-000.24,-000.03,0000.08,0000.09,-000.12,-000.05,17.8,24.3,01.5,01.0,0667.2,30.9
2021-07-09T02:50:00Z,00000200,01000000,-000.13,0000.11,-000.00,0000.04,-000.10,0000.35,0000.14,0000.14,0000.19,17.8,24.3,01.5,01.0,0667.2,30.9
2021-07-09T02:51:00Z,00000200,01000000,-000.31,0000.25,0000.22,0000.42,0000.04,0000.16,-000.45,-000.18,0000.38,17.8,24.3,01.4,00.9,0667.2,30.9
2021-07-09T02:52:00Z,00000200,01000000,0000.24,0000.17,0000.33,0000.42,0000.42,-000.02,0000.11,0000.19,-000.55,17.9,24.3,01.4,00.9,0667.2,31.0
2021-07-09T02:53:00Z,00000200,01000000,0000.62,0000.26,0000.01,0000.35,-000.14,0000.52,-000.11,-000.19,-000.11,18.0,24.4,01.3,00.9,0667.2,31.0
2021-07-09T02:54:00Z,00000200,01000000,0000.08,0000.20,0000.22,-000.40,0000.10,0000.01,-000.12,-000.00,0000.21,18.1,24.4,01.3,00.9,0667.2,31.0
2021-07-09T02:55:00Z,00000200,01000000,0000.60,-000.06,-000.31,-000.10,-000.09,-000.13,0000.21,-000.08,0000.04,18.2,24.5,01.3,00.9,0667.2,31.0
2021-07-09T02:56:00Z,00000200,01000000,0000.75,0000.08,0000.06,0000.20,-000.14,-000.11,-000.15,-000.18,-000.47,18.2,24.5,01.2,00.8,0667.2,31.0
2021-07-09T02:57:00Z,00000200,41000000,,,,,,,0000.44,0000.79,0000.19,18.2,24.5,01.5,01.0,0667.0,31.0
2021-07-09T02:58:00Z,00000200,61000000,,,,,,,-000.11,-000.62,0000.38,17.8,24.6,01.2,00.8,0666.1,31.0
2021-07-09T02:59:00Z,00000200,21000000,,,,,,,-000.26,-000.10,-000.15,17.8,24.7,01.2,00.8,0666.1,31.0
